Dewpoint
11 11 11 12 12 11 8 3 -2 -6 -7 -8 -9 -9 -9 -8 -6 -6 -6 -5 -6 -4 -0 3 5 5 5 4 4 5 5 7 7 7 6 6 6 7 8 8 8 8
11 11 11 12 12 10 5 0 -4 -7 -9 -9 -10 -10 -9 -8 -7 -6 -6 -5 -5 -4 0 3 4 5 4 4 4 4 5 5 6 6 6 6 6 7 7 8 9 9
10 11 11 12 11 8 4 -1 -5 -7 -8 -10 -10 -10 -8 -7 -7 -6 -6 -5 -5 -3 -0 3 4 4 4 4 4 4 4 4 5 6 7 6 6 6 7 8 9 9
10 11 11 12 11 8 5 1 -5 -7 -9 -11 -10 -9 -8 -7 -7 -6 -5 -4 -4 -3 0 2 3 3 3 3 2 2 2 3 4 6 7 7 7 7 7 8 8 9
10 10 11 12 10 8 8 3 -5 -7 -10 -12 -9 -8 -8 -7 -6 -5 -4 -4 -4 -2 -0 1 3 3 2 1 1 2 3 4 6 6 7 7 6 7 7 8 8 8
10 11 11 11 10 9 7 1 -6 -8 -10 -11 -9 -8 -8 -7 -6 -4 -4 -3 -2 -1 -1 2 4 3 2 3 5 6 7 7 8 8 8 7 6 6 7 7 8 9
11 11 12 12 11 10 5 -3 -6 -8 -12 -10 -8 -8 -7 -6 -5 -4 -3 -1 0 -0 1 3 4 4 4 6 7 7 7 8 8 9 9 9 8 7 7 7 7 8
10 11 12 12 13 12 7 -2 -5 -7 -11 -9 -8 -8 -6 -5 -5 -4 -2 1 1 1 3 5 5 5 6 7 7 7 8 8 9 9 9 9 9 8 8 7 7 7
11 12 14 14 14 13 6 -2 -3 -6 -9 -9 -8 -7 -6 -5 -4 -4 -1 1 1 2 4 5 5 6 6 7 7 8 8 8 9 9 9 9 9 9 8 8 7 7
14 16 16 15 15 11 1 -4 -3 -6 -8 -7 -8 -7 -6 -5 -4 -4 -1 1 2 3 4 4 5 6 6 7 7 8 8 8 9 9 9 9 8 8 8 8 7 7
16 16 15 15 15 10 -1 -5 -2 -6 -6 -6 -8 -7 -6 -5 -4 -4 -2 0 1 2 3 4 5 6 6 7 7 8 8 8 8 9 9 9 8 8 8 8 8 7
14 13 12 13 14 10 1 -4 -2 -4 -3 -5 -8 -6 -6 -5 -4 -4 -2 -0 0 1 3 4 5 6 7 7 8 8 8 8 9 9 9 8 7 6 6 7 7 7
12 10 11 12 13 10 1 -2 -0 -1 -1 -4 -6 -5 -5 -5 -4 -4 -2 -0 0 2 4 4 5 6 7 8 8 8 8 8 8 8 7 7 5 5 5 5 7 7
13 11 10 11 14 10 2 -1 0 -1 -1 -3 -5 -2 -1 -2 -3 -3 -2 -0 1 2 4 4 5 6 7 7 7 7 6 6 6 6 5 4 3 3 4 4 5 7
15 14 12 13 14 10 2 -1 -1 -2 -0 -2 -4 0 3 1 -1 -2 -2 0 1 2 3 3 4 4 5 6 6 5 5 5 5 5 4 4 3 3 3 4 5 6
16 16 16 16 15 10 2 -1 -1 -1 -1 -3 -3 2 4 2 1 -0 -1 -0 1 1 2 2 2 2 3 4 5 4 4 4 4 4 4 4 4 4 4 4 5 5
17 17 16 16 15 11 5 1 0 -1 -1 -3 -3 1 4 4 2 0 -1 -1 -0 -0 1 1 1 1 2 3 3 3 3 3 3 3 4 4 5 5 4 5 5 5
17 16 16 15 14 13 8 3 1 -0 -2 -2 -3 0 4 5 3 0 -2 -1 -0 -1 -0 0 -0 0 1 2 2 3 3 3 3 3 4 4 4 4 5 5 5 6
17 16 16 15 15 13 8 3 2 1 -1 -1 -2 -0 4 4 3 2 -0 -1 -1 -2 -1 -0 -0 0 1 1 2 4 5 6 5 4 4 4 4 4 5 6 6 7
16 16 16 16 15 14 9 4 4 1 -1 -0 -2 -1 3 4 3 2 1 1 1 -1 -1 -1 -0 1 1 1 3 5 8 9 8 6 5 5 4 5 6 7 7 8
17 16 16 16 15 14 9 5 4 2 0 1 -1 -1 3 4 3 3 3 3 3 1 -1 -0 -0 1 1 2 3 6 9 10 9 8 7 7 6 7 7 8 8 8
16 16 16 15 16 15 12 8 6 3 1 2 0 -1 2 3 3 3 3 4 4 1 -0 0 -0 0 2 3 4 7 9 11 10 10 9 8 8 8 9 9 9 9
16 16 16 15 15 15 14 12 10 6 3 3 1 -0 1 3 4 4 5 6 4 1 1 2 1 1 4 6 7 8 10 11 11 10 10 10 10 10 10 10 9 9
16 16 16 16 15 15 15 14 12 8 4 4 2 1 2 3 4 5 6 7 4 2 4 5 5 5 8 9 9 8 8 9 10 10 11 11 11 11 11 10 10 10
16 16 16 16 16 15 15 14 11 7 5 5 3 2 1 1 4 7 7 7 5 4 6 8 8 9 10 10 10 9 9 9 10 11 11 12 12 12 11 11 11 11
16 16 16 16 16 15 14 14 11 6 5 5 2 1 3 5 8 9 9 9 9 8 8 9 10 11 12 12 11 11 11 11 11 12 12 12 12 11 11 11 11 10
Wind_Speed
29 29 28 26 25 23 21 20 18 16 15 15 15 14 14 13 14 14 13 12 12 11 11 11 11 10 9 9 9 9 9 9 10 10 11 11 10 10 9 9 8 8
31 30 29 27 26 24 22 20 19 17 16 15 15 15 15 15 15 15 14 12 12 12 12 12 12 11 10 10 10 10 11 10 10 11 12 11 11 11 11 10 10 9
32 31 30 29 27 24 22 21 20 18 17 16 16 16 16 16 16 15 13 12 12 12 13 12 12 12 11 11 11 11 11 11 10 11 12 11 12 12 11 11 11 11
34 33 31 29 27 25 23 21 20 19 18 17 17 17 17 17 17 16 14 13 13 13 13 13 12 12 12 12 12 11 11 10 10 10 11 11 12 12 12 12 13 13
34 33 31 29 27 26 24 22 21 20 19 18 18 18 18 18 18 16 14 14 14 13 13 13 12 12 12 11 10 10 9 8 8 8 9 10 10 11 13 13 14 14
35 34 32 30 29 27 24 23 22 21 19 19 18 19 19 19 18 16 15 14 14 13 13 13 13 12 11 10 10 9 8 7 7 8 8 9 9 10 12 14 15 15
37 35 33 31 29 27 24 23 22 21 20 20 19 19 20 20 18 16 15 14 14 13 14 14 13 12 12 11 11 10 9 9 9 10 10 10 10 10 12 13 15 15
38 36 34 32 28 25 23 23 23 21 21 20 20 20 21 20 17 16 15 15 14 14 15 14 13 13 13 12 12 11 11 11 12 13 13 13 13 13 13 14 15 16
38 36 33 30 26 24 22 22 23 22 21 21 20 21 21 19 17 16 15 15 15 16 16 15 14 13 12 12 12 13 14 14 15 15 16 16 16 15 15 15 17 17
37 34 30 27 25 24 24 24 24 24 22 21 21 21 21 19 17 17 16 16 16 17 16 15 14 13 12 12 13 14 16 17 17 18 18 18 18 17 16 16 17 17
35 32 30 29 29 27 26 26 25 24 23 22 21 21 21 19 18 18 18 18 17 17 16 16 15 14 13 13 14 16 17 18 19 19 19 19 20 19 18 17 18 18
38 37 36 34 32 29 26 25 26 25 24 22 21 21 21 21 19 19 19 18 17 17 17 16 15 15 15 15 16 17 18 19 19 19 20 20 20 20 19 18 18 18
45 42 39 37 34 30 27 25 25 25 25 23 21 21 22 21 21 20 20 19 18 19 18 16 15 16 16 16 17 17 18 18 19 19 19 20 20 19 19 18 18 18
47 43 40 38 36 33 31 29 27 28 27 24 23 23 22 21 21 21 21 20 20 20 19 17 16 17 17 18 17 17 18 18 18 19 19 20 20 19 18 19 18 18
46 42 40 37 34 34 36 35 34 33 29 27 27 25 21 20 22 22 22 22 21 21 19 18 18 19 18 18 18 17 18 18 19 19 20 21 20 19 19 18 18 18
43 39 36 34 34 37 39 40 40 39 34 32 32 28 21 20 22 23 24 24 23 22 21 20 20 20 19 19 18 17 18 19 19 20 21 21 20 20 19 18 18 18
39 35 34 34 38 42 43 42 42 41 38 35 35 31 23 20 22 23 24 25 25 24 23 22 22 21 20 19 18 18 18 19 20 21 21 22 22 21 20 19 19 18
38 37 35 36 42 46 46 43 41 41 39 36 36 33 26 22 23 23 24 25 26 26 25 24 23 22 21 20 19 19 19 20 21 22 23 23 24 23 22 20 20 19
38 37 35 36 41 45 46 43 40 41 40 38 37 35 28 25 25 25 26 27 28 28 27 25 25 23 22 21 20 19 19 20 22 23 24 25 26 25 24 23 22 21
37 36 34 33 38 43 46 44 41 41 42 39 38 37 31 27 26 26 27 27 27 28 28 27 27 25 23 22 21 20 20 21 23 25 26 27 27 27 26 25 24 24
35 34 32 31 35 41 45 44 41 42 41 38 38 38 33 29 27 27 28 27 26 28 29 28 27 26 24 23 23 21 21 22 25 26 26 27 28 27 27 27 26 26
34 34 31 29 31 39 44 44 42 43 41 37 37 38 35 31 29 29 29 27 26 28 28 28 27 26 24 23 23 22 22 24 26 26 27 27 28 28 29 29 29 28
33 33 30 27 30 36 41 42 43 44 42 38 37 38 35 32 31 31 30 28 27 27 27 26 26 24 22 22 21 21 22 24 26 26 27 28 29 30 30 31 30 30
32 31 28 27 29 33 36 40 42 43 42 38 37 38 36 33 32 32 30 28 27 26 25 25 26 24 23 23 22 20 21 24 25 26 27 28 30 31 30 30 30 31
31 29 26 27 29 30 31 35 39 40 39 37 36 37 36 35 34 32 29 27 26 26 25 25 26 25 25 25 23 21 21 23 25 26 27 29 31 31 30 30 30 31
29 27 25 26 27 27 29 33 36 37 37 36 36 36 35 33 30 28 27 27 26 25 24 24 25 24 22 21 20 21 21 22 23 24 24 26 28 26 25 25 26 25
Wind_Direction
234 234 235 236 238 239 241 242 243 243 245 248 252 256 258 259 258 257 259 260 260 257 250 247 248 250 254 259 267 274 275 276 275 278 280 282 284 284 283 284 285 287
233 233 234 235 235 236 237 238 239 238 240 244 247 250 251 251 251 253 256 256 257 255 247 244 245 246 251 257 264 270 273 274 275 277 277 277 279 279 278 279 279 281
232 233 233 233 233 234 235 236 236 235 237 240 242 245 246 247 250 252 253 253 253 251 245 242 243 247 251 257 262 265 267 270 270 271 273 274 276 276 275 275 276 279
232 233 233 234 233 233 235 236 235 234 235 237 239 242 243 245 248 250 250 250 249 245 241 239 241 247 252 254 256 257 258 261 262 263 267 271 273 274 274 273 274 276
232 233 233 234 233 232 234 234 234 234 234 237 238 239 241 243 245 245 246 248 244 238 235 234 239 245 245 244 244 245 246 249 255 263 269 275 278 276 274 272 272 274
232 232 233 234 232 232 232 232 233 233 233 235 236 238 240 241 242 241 242 243 238 233 232 232 234 233 229 232 236 240 244 250 260 270 276 282 284 283 280 274 272 272
232 232 232 233 232 232 231 230 231 231 232 234 235 237 239 239 239 237 237 238 234 230 231 231 228 223 224 233 241 247 254 260 268 273 278 284 287 288 289 285 279 273
234 234 233 233 233 234 233 232 232 231 231 233 235 238 239 238 237 235 233 233 231 230 232 230 226 225 229 238 247 255 262 265 269 273 278 284 287 287 289 291 287 278
236 234 233 233 234 235 235 235 236 234 233 234 236 238 239 238 236 233 231 230 230 231 232 231 229 229 235 244 254 262 267 269 271 275 279 283 286 286 287 289 289 283
232 231 232 235 235 234 232 233 237 237 235 235 236 237 238 237 235 232 230 229 230 231 232 233 232 234 240 251 260 265 269 271 273 275 278 281 284 285 283 283 286 284
229 232 236 236 234 230 228 230 236 238 236 236 236 237 237 237 235 233 231 231 232 232 233 234 234 238 245 253 260 265 268 270 271 274 277 279 281 281 279 278 281 282
230 233 234 233 230 226 225 229 236 240 239 237 236 236 238 238 236 235 233 234 236 236 235 236 237 242 248 254 261 264 266 267 269 272 275 278 280 279 276 275 275 277
230 228 228 228 224 220 220 226 234 240 240 236 232 233 237 239 238 236 235 235 238 239 238 238 241 245 249 255 259 262 264 266 269 273 277 280 281 279 275 272 272 273
230 226 225 223 218 213 214 218 226 235 236 231 227 228 233 238 238 236 235 235 236 238 239 240 244 247 250 255 259 262 266 269 273 277 280 283 283 280 276 273 271 270
235 229 222 219 214 212 211 211 215 223 228 226 223 224 228 233 236 236 235 234 236 238 239 242 246 250 253 257 262 267 272 276 277 279 281 283 284 283 280 275 271 270
238 227 217 212 211 214 215 214 214 217 220 220 218 220 225 230 234 235 232 232 235 238 241 243 248 253 257 260 265 271 276 278 279 281 282 282 282 282 281 278 274 270
233 223 215 211 213 218 220 219 218 216 216 218 217 218 224 230 234 233 230 230 234 237 241 244 249 255 258 261 267 272 276 278 280 282 281 280 280 280 279 277 273 268
231 226 222 217 217 219 220 220 219 215 215 218 218 218 223 231 232 226 224 230 235 238 242 246 250 255 258 262 267 271 276 279 280 280 279 277 277 277 276 274 271 267
234 231 226 221 221 220 218 218 219 215 214 218 217 217 224 231 231 227 225 230 237 241 244 249 252 255 258 263 268 272 277 279 279 278 277 275 274 274 274 273 270 266
235 233 228 227 227 224 218 218 220 216 214 216 216 217 225 232 233 234 234 238 244 246 247 251 255 258 262 267 270 274 277 279 279 277 273 270 269 270 271 272 270 267
234 233 232 233 232 226 220 220 221 218 216 216 215 218 226 233 235 238 242 247 253 252 250 254 260 264 269 272 273 276 277 278 277 274 271 269 267 267 269 270 269 267
235 234 235 236 234 229 224 222 223 221 218 216 215 219 227 235 238 241 246 252 257 255 254 259 265 270 273 275 276 277 277 276 275 273 272 270 268 268 268 268 266 265
239 237 235 236 235 232 230 228 227 224 219 215 216 220 226 235 240 244 250 256 258 256 257 264 270 273 276 280 281 278 274 274 274 273 273 272 270 268 266 265 266 264
240 237 235 236 235 233 234 233 230 224 218 214 216 221 226 235 242 249 256 260 259 258 261 267 271 273 276 281 284 281 275 274 273 272 272 272 271 271 270 270 270 267
241 238 236 236 235 235 236 233 227 220 214 213 217 222 227 235 244 254 261 263 261 260 263 267 271 275 276 276 279 280 277 276 275 273 273 273 274 276 278 279 280 278
242 239 236 235 237 239 237 230 223 218 213 213 218 223 230 240 250 259 264 265 264 263 264 267 271 274 274 272 274 275 276 276 274 273 275 277 280 281 282 282 284 286
Height
1542 1543 1545 1546 1547 1549 1550 1551 1552 1553 1553 1554 1555 1556 1556 1557 1557 1558 1558 1559 1559 1559 1560 1560 1560 1560 1561 1561 1561 1562 1562 1562 1563 1563 1563 1563 1563 1563 1563 1562 1562 1562
1539 1540 1542 1543 1545 1546 1548 1549 1551 1551 1552 1553 1554 1555 1555 1555 1556 1557 1557 1558 1558 1558 1559 1559 1559 1559 1560 1560 1560 1560 1561 1561 1561 1562 1562 1562 1562 1562 1562 1562 1561 1561
1536 1537 1539 1541 1543 1545 1546 1548 1549 1550 1551 1552 1553 1553 1554 1554 1555 1555 1556 1556 1556 1557 1557 1558 1558 1558 1559 1559 1559 1559 1559 1560 1560 1560 1560 1560 1561 1561 1561 1561 1560 1560
1533 1535 1537 1540 1541 1543 1545 1546 1548 1549 1550 1551 1551 1552 1552 1552 1553 1553 1554 1554 1554 1555 1556 1556 1557 1557 1558 1558 1558 1558 1558 1559 1559 1559 1559 1559 1560 1560 1560 1560 1559 1559
1530 1533 1535 1538 1539 1541 1543 1545 1546 1547 1548 1549 1549 1550 1550 1550 1551 1551 1552 1552 1553 1554 1554 1555 1556 1556 1557 1557 1557 1558 1558 1558 1558 1558 1558 1558 1558 1558 1559 1558 1558 1558
1528 1531 1533 1536 1537 1539 1542 1543 1545 1546 1546 1547 1547 1547 1547 1548 1549 1549 1550 1551 1551 1552 1553 1553 1554 1555 1556 1556 1557 1557 1557 1557 1557 1557 1557 1557 1557 1557 1557 1557 1557 1556
1525 1528 1531 1534 1536 1538 1541 1542 1543 1544 1545 1546 1546 1546 1546 1547 1548 1548 1549 1550 1550 1551 1551 1552 1552 1553 1554 1555 1555 1556 1556 1556 1556 1556 1556 1555 1555 1555 1555 1555 1555 1554
1523 1527 1529 1533 1536 1539 1541 1542 1543 1543 1543 1544 1545 1545 1545 1546 1547 1547 1548 1548 1549 1549 1550 1550 1551 1551 1552 1553 1554 1554 1555 1555 1555 1554 1554 1554 1553 1553 1553 1553 1553 1552
1523 1526 1530 1534 1537 1538 1540 1541 1542 1542 1542 1543 1544 1544 1545 1545 1545 1545 1546 1546 1547 1547 1548 1548 1549 1550 1550 1551 1552 1552 1553 1553 1553 1553 1552 1552 1551 1551 1551 1551 1551 1550
1523 1527 1533 1536 1537 1537 1537 1539 1540 1540 1541 1541 1542 1543 1543 1543 1543 1543 1543 1544 1544 1545 1545 1546 1547 1547 1548 1549 1550 1550 1551 1551 1551 1551 1550 1550 1550 1549 1549 1549 1548 1548
1523 1528 1532 1531 1531 1533 1535 1536 1538 1538 1539 1540 1541 1541 1540 1540 1541 1541 1541 1541 1541 1542 1543 1543 1544 1545 1546 1546 1547 1548 1549 1549 1549 1549 1548 1548 1548 1547 1547 1547 1546 1546
1515 1520 1522 1522 1525 1529 1533 1536 1537 1537 1538 1538 1539 1538 1538 1538 1538 1538 1538 1538 1539 1540 1540 1541 1542 1543 1543 1544 1545 1545 1546 1546 1546 1546 1546 1546 1546 1545 1545 1544 1544 1543
1501 1507 1512 1516 1520 1525 1530 1533 1534 1535 1535 1535 1536 1536 1535 1535 1536 1536 1536 1537 1537 1538 1538 1539 1540 1540 1541 1542 1542 1542 1543 1543 1543 1543 1543 1543 1543 1543 1542 1541 1541 1541
1495 1502 1507 1512 1516 1521 1524 1526 1528 1530 1531 1532 1533 1533 1532 1532 1533 1534 1534 1535 1535 1535 1536 1537 1537 1538 1539 1539 1540 1540 1540 1540 1540 1540 1540 1540 1540 1540 1539 1539 1538 1538
1493 1499 1504 1509 1515 1518 1519 1519 1520 1522 1525 1526 1528 1528 1529 1529 1530 1531 1532 1532 1532 1532 1533 1534 1535 1535 1536 1537 1538 1538 1538 1538 1537 1537 1538 1537 1537 1537 1536 1536 1536 1536
1491 1497 1503 1510 1514 1513 1513 1513 1513 1514 1517 1520 1522 1524 1525 1525 1526 1528 1529 1529 1529 1530 1530 1531 1532 1532 1533 1534 1535 1535 1536 1535 1535 1535 1535 1535 1535 1534 1534 1533 1533 1533
1489 1494 1500 1505 1506 1504 1505 1507 1508 1509 1511 1514 1517 1520 1521 1522 1523 1524 1525 1526 1526 1527 1527 1528 1529 1530 1531 1532 1532 1533 1533 1533 1532 1533 1533 1533 1532 1532 1531 1531 1531 1530
1485 1488 1493 1497 1498 1497 1499 1502 1505 1506 1509 1512 1515 1517 1518 1519 1520 1521 1522 1523 1523 1523 1524 1525 1526 1527 1528 1529 1529 1530 1530 1530 1529 1530 1530 1530 1530 1529 1529 1529 1528 1528
1481 1484 1489 1493 1494 1494 1496 1498 1501 1503 1505 1508 1511 1514 1515 1516 1516 1518 1519 1519 1520 1520 1521 1522 1523 1524 1526 1526 1526 1527 1527 1527 1527 1527 1527 1527 1527 1526 1526 1526 1525 1525
1479 1482 1486 1489 1490 1492 1493 1495 1497 1499 1501 1504 1508 1511 1512 1512 1514 1515 1516 1516 1517 1518 1519 1520 1520 1522 1523 1524 1524 1524 1524 1524 1524 1524 1524 1524 1524 1524 1523 1523 1522 1522
1476 1479 1482 1484 1486 1489 1491 1492 1495 1497 1499 1501 1505 1508 1509 1510 1512 1513 1513 1514 1516 1516 1517 1517 1518 1519 1520 1521 1521 1521 1521 1521 1521 1521 1521 1521 1520 1521 1520 1520 1519 1519
1472 1475 1478 1482 1484 1485 1487 1489 1492 1494 1496 1499 1502 1505 1507 1508 1509 1510 1511 1512 1513 1514 1515 1515 1516 1517 1518 1518 1518 1518 1518 1518 1517 1517 1517 1517 1517 1517 1517 1516 1516 1516
1468 1471 1476 1479 1480 1480 1482 1483 1486 1489 1492 1496 1499 1502 1504 1506 1507 1507 1508 1510 1511 1512 1512 1513 1513 1514 1515 1514 1514 1515 1515 1514 1514 1514 1514 1514 1513 1513 1513 1512 1512 1512
1466 1469 1473 1474 1474 1475 1477 1478 1480 1483 1488 1492 1496 1499 1501 1503 1504 1505 1507 1508 1508 1509 1510 1510 1511 1511 1512 1511 1511 1511 1511 1511 1510 1510 1510 1510 1509 1508 1508 1508 1508 1507
1464 1467 1469 1469 1470 1471 1472 1473 1476 1481 1485 1490 1493 1496 1498 1500 1502 1503 1504 1505 1505 1506 1507 1507 1507 1508 1509 1508 1508 1508 1507 1507 1506 1506 1506 1506 1505 1504 1504 1504 1503 1502
1461 1463 1465 1467 1468 1469 1469 1471 1474 1479 1484 1488 1491 1494 1496 1499 1500 1501 1502 1502 1503 1503 1503 1504 1504 1505 1505 1505 1505 1505 1504 1503 1502 1501 1502 1502 1501 1501 1500 1500 1499 1498